| time (UTC) | temp F | wind direction | speed MPH | gust MPH | rain 1hr in | rain 24hr in | rain mn in | humidity % | barometer mb |
| 20260510160229 | 70 | 44 | 3.0 | 7.0 | 0.00 | 0.00 | 0.00 | 18 | 1023.1 |
| 20260510155748 | 70 | 34 | 3.0 | 6.0 | 0.00 | 0.00 | 0.00 | 18 | 1023.1 |
| 20260510155244 | 70 | 81 | 3.0 | 6.0 | 0.00 | 0.00 | 0.00 | 17 | 1023.1 |
| 20260510154721 | 70 | 20 | 1.0 | 4.0 | 0.00 | 0.00 | 0.00 | 18 | 1023.1 |
| 20260510154223 | 70 | 82 | 2.0 | 4.0 | 0.00 | 0.00 | 0.00 | 18 | 1023.1 |
| 20260510153722 | 70 | 68 | 3.0 | 5.0 | 0.00 | 0.00 | 0.00 | 18 | 1023.1 |
| 20260510153219 | 69 | 34 | 2.0 | 5.0 | 0.00 | 0.00 | 0.00 | 18 | 1023.1 |
| 20260510152736 | 70 | 58 | 3.0 | 5.0 | 0.00 | 0.00 | 0.00 | 17 | 1023.0 |
| 20260510152212 | 70 | 79 | 1.0 | 3.0 | 0.00 | 0.00 | 0.00 | 17 | 1023.0 |
| 20260510151710 | 69 | 54 | 2.0 | 4.0 | 0.00 | 0.00 | 0.00 | 18 | 1023.0 |
| 20260510151227 | 69 | 90 | 2.0 | 4.0 | 0.00 | 0.00 | 0.00 | 17 | 1022.9 |
| 20260510150745 | 69 | 94 | 1.0 | 3.0 | 0.00 | 0.00 | 0.00 | 18 | 1023.0 |
| 20260510150221 | 69 | 70 | 1.0 | 3.0 | 0.00 | 0.00 | 0.00 | 17 | 1022.9 |
| 20260510145720 | 69 | 93 | 1.0 | 3.0 | 0.00 | 0.00 | 0.00 | 17 | 1022.9 |
| 20260510145217 | 68 | 129 | 0.0 | 3.0 | 0.00 | 0.00 | 0.00 | 17 | 1022.8 |
| 20260510144714 | 68 | 59 | 1.0 | 3.0 | 0.00 | 0.00 | 0.00 | 18 | 1022.8 |
| 20260510144212 | 67 | 56 | 1.0 | 2.0 | 0.00 | 0.00 | 0.00 | 18 | 1022.7 |
| 20260510143710 | 67 | 66 | 1.0 | 2.0 | 0.00 | 0.00 | 0.00 | 19 | 1022.6 |
| 20260510143227 | 66 | 86 | 0.0 | 2.0 | 0.00 | 0.00 | 0.00 | 18 | 1022.7 |
| 20260510142725 | 66 | 57 | 1.0 | 2.0 | 0.00 | 0.00 | 0.00 | 18 | 1022.6 |
| 20260510142242 | 66 | 55 | 0.0 | 2.0 | 0.00 | 0.00 | 0.00 | 22 | 1022.6 |
| 20260510141719 | 65 | 105 | 0.0 | 1.0 | 0.00 | 0.00 | 0.00 | 21 | 1022.6 |
| 20260510141220 | 64 | 115 | 0.0 | 1.0 | 0.00 | 0.00 | 0.00 | 21 | 1022.6 |
| 20260510140717 | 63 | 212 | 0.0 | 0.0 | 0.00 | 0.00 | 0.00 | 22 | 1022.6 |
| 20260510140214 | 62 | 212 | 0.0 | 0.0 | 0.00 | 0.00 | 0.00 | 22 | 1022.5 |
| 20260510135732 | 60 | 212 | 0.0 | 0.0 | 0.00 | 0.00 | 0.00 | 22 | 1022.4 |
| 20260510135230 | 60 | 212 | 0.0 | 0.0 | 0.00 | 0.00 | 0.00 | 24 | 1022.3 |
| 20260510134729 | 59 | 212 | 0.0 | 0.0 | 0.00 | 0.00 | 0.00 | 23 | 1022.3 |
| 20260510134228 | 59 | 212 | 0.0 | 1.0 | 0.00 | 0.00 | 0.00 | 23 | 1022.2 |
| 20260510133746 | 58 | 212 | 0.0 | 1.0 | 0.00 | 0.00 | 0.00 | 21 | 1022.1 |
| 20260510133221 | 58 | 217 | 0.0 | 0.0 | 0.00 | 0.00 | 0.00 | 22 | 1022.1 |
| 20260510132719 | 58 | 217 | 0.0 | 0.0 | 0.00 | 0.00 | 0.00 | 21 | 1022.0 |
| 20260510132236 | 58 | 217 | 0.0 | 1.0 | 0.00 | 0.00 | 0.00 | 21 | 1021.9 |
| 20260510131713 | 57 | 217 | 0.0 | 1.0 | 0.00 | 0.00 | 0.00 | 21 | 1021.9 |
| 20260510131231 | 57 | 217 | 0.0 | 1.0 | 0.00 | 0.00 | 0.00 | 20 | 1021.9 |
| 20260510130748 | 57 | 218 | 0.0 | 1.0 | 0.00 | 0.00 | 0.00 | 20 | 1021.9 |
| 20260510130225 | 57 | 218 | 0.0 | 1.0 | 0.00 | 0.00 | 0.00 | 20 | 1021.8 |
| 20260510125723 | 56 | 218 | 0.0 | 1.0 | 0.00 | 0.00 | 0.00 | 20 | 1021.8 |
| 20260510125221 | 56 | 218 | 0.0 | 1.0 | 0.00 | 0.00 | 0.00 | 19 | 1021.7 |
| 20260510124718 | 56 | 218 | 0.0 | 1.0 | 0.00 | 0.00 | 0.00 | 20 | 1021.7 |
| 20260510124236 | 55 | 218 | 0.0 | 0.0 | 0.00 | 0.00 | 0.00 | 19 | 1021.8 |
| 20260510123712 | 56 | 218 | 0.0 | 0.0 | 0.00 | 0.00 | 0.00 | 19 | 1021.8 |
| 20260510123213 | 55 | 218 | 0.0 | 0.0 | 0.00 | 0.00 | 0.00 | 19 | 1021.8 |
| 20260510122711 | 55 | 218 | 0.0 | 0.0 | 0.00 | 0.00 | 0.00 | 18 | 1021.8 |
| 20260510122230 | 55 | 218 | 0.0 | 0.0 | 0.00 | 0.00 | 0.00 | 18 | 1021.7 |
| 20260510121728 | 54 | 218 | 0.0 | 0.0 | 0.00 | 0.00 | 0.00 | 18 | 1021.7 |
| 20260510121226 | 54 | 218 | 0.0 | 0.0 | 0.00 | 0.00 | 0.00 | 19 | 1021.7 |
| 20260510120724 | 54 | 218 | 0.0 | 0.0 | 0.00 | 0.00 | 0.00 | 19 | 1021.7 |
| 20260510120222 | 55 | 218 | 0.0 | 0.0 | 0.00 | 0.00 | 0.00 | 19 | 1021.7 |
| 20260510115720 | 56 | 218 | 0.0 | 0.0 | 0.00 | 0.00 | 0.00 | 18 | 1021.7 |
| 20260510115217 | 56 | 218 | 0.0 | 1.0 | 0.00 | 0.00 | 0.00 | 17 | 1021.6 |
| 20260510114713 | 56 | 218 | 0.0 | 1.0 | 0.00 | 0.00 | 0.00 | 17 | 1021.6 |
| 20260510114231 | 56 | 218 | 0.0 | 0.0 | 0.00 | 0.00 | 0.00 | 18 | 1021.6 |
| 20260510113729 | 56 | 203 | 0.0 | 0.0 | 0.00 | 0.00 | 0.00 | 18 | 1021.5 |
| 20260510113226 | 56 | 203 | 0.0 | 0.0 | 0.00 | 0.00 | 0.00 | 19 | 1021.6 |
| 20260510112723 | 56 | 203 | 0.0 | 0.0 | 0.00 | 0.00 | 0.00 | 19 | 1021.6 |
| 20260510112220 | 56 | 203 | 0.0 | 0.0 | 0.00 | 0.00 | 0.00 | 19 | 1021.6 |
| 20260510111738 | 56 | 203 | 0.0 | 0.0 | 0.00 | 0.00 | 0.00 | 19 | 1021.6 |
| 20260510111235 | 57 | 201 | 0.0 | 0.0 | 0.00 | 0.00 | 0.00 | 18 | 1021.7 |
| 20260510110715 | 57 | 201 | 0.0 | 0.0 | 0.00 | 0.00 | 0.00 | 18 | 1021.7 |
| 20260510110212 | 56 | 200 | 0.0 | 1.0 | 0.00 | 0.00 | 0.00 | 18 | 1021.7 |
| 20260510105731 | 56 | 212 | 0.0 | 1.0 | 0.00 | 0.00 | 0.00 | 18 | 1021.7 |
| 20260510105248 | 56 | 212 | 0.0 | 1.0 | 0.00 | 0.00 | 0.00 | 18 | 1021.7 |
| 20260510104726 | 56 | 204 | 0.0 | 1.0 | 0.00 | 0.00 | 0.00 | 18 | 1021.6 |
| 20260510104244 | 55 | 246 | 0.0 | 1.0 | 0.00 | 0.00 | 0.00 | 18 | 1021.7 |
| 20260510103721 | 54 | 246 | 0.0 | 1.0 | 0.00 | 0.00 | 0.00 | 19 | 1021.7 |
| 20260510103239 | 54 | 246 | 0.0 | 1.0 | 0.00 | 0.00 | 0.00 | 19 | 1021.6 |
| 20260510102715 | 54 | 246 | 0.0 | 0.0 | 0.00 | 0.00 | 0.00 | 19 | 1021.6 |
| 20260510102212 | 54 | 246 | 0.0 | 0.0 | 0.00 | 0.00 | 0.00 | 18 | 1021.5 |
| 20260510101730 | 54 | 246 | 0.0 | 0.0 | 0.00 | 0.00 | 0.00 | 18 | 1021.6 |
| 20260510101248 | 54 | 246 | 0.0 | 0.0 | 0.00 | 0.00 | 0.00 | 18 | 1021.6 |
| 20260510100725 | 54 | 246 | 0.0 | 0.0 | 0.00 | 0.00 | 0.00 | 18 | 1021.6 |
| 20260510100243 | 54 | 246 | 0.0 | 0.0 | 0.00 | 0.00 | 0.00 | 18 | 1021.5 |
| 20260510095741 | 54 | 246 | 0.0 | 0.0 | 0.00 | 0.00 | 0.00 | 18 | 1021.5 |
| 20260510095216 | 54 | 246 | 0.0 | 0.0 | 0.00 | 0.00 | 0.00 | 18 | 1021.5 |
| 20260510094714 | 54 | 246 | 0.0 | 0.0 | 0.00 | 0.00 | 0.00 | 18 | 1021.5 |
| 20260510094253 | 54 | 246 | 0.0 | 0.0 | 0.00 | 0.00 | 0.00 | 19 | 1021.6 |
| 20260510093730 | 54 | 246 | 0.0 | 0.0 | 0.00 | 0.00 | 0.00 | 19 | 1021.6 |
| 20260510093227 | 54 | 246 | 0.0 | 0.0 | 0.00 | 0.00 | 0.00 | 19 | 1021.5 |
| 20260510092725 | 54 | 246 | 0.0 | 0.0 | 0.00 | 0.00 | 0.00 | 19 | 1021.6 |
| 20260510092223 | 54 | 246 | 0.0 | 0.0 | 0.00 | 0.00 | 0.00 | 18 | 1021.5 |
| 20260510091719 | 54 | 246 | 0.0 | 0.0 | 0.00 | 0.00 | 0.00 | 18 | 1021.5 |
| 20260510091220 | 54 | 246 | 0.0 | 0.0 | 0.00 | 0.00 | 0.00 | 19 | 1021.6 |
| 20260510090715 | 54 | 246 | 0.0 | 1.0 | 0.00 | 0.00 | 0.00 | 20 | 1021.6 |
| 20260510090213 | 54 | 246 | 0.0 | 1.0 | 0.00 | 0.00 | 0.00 | 20 | 1021.5 |
| 20260510085732 | 55 | 246 | 0.0 | 1.0 | 0.00 | 0.00 | 0.00 | 20 | 1021.5 |
| 20260510085229 | 55 | 246 | 0.0 | 0.0 | 0.00 | 0.00 | 0.00 | 19 | 1021.5 |
| 20260510084748 | 55 | 246 | 0.0 | 0.0 | 0.00 | 0.00 | 0.00 | 19 | 1021.5 |
| 20260510084225 | 55 | 246 | 0.0 | 0.0 | 0.00 | 0.00 | 0.00 | 19 | 1021.5 |
| 20260510083723 | 55 | 246 | 0.0 | 0.0 | 0.00 | 0.00 | 0.00 | 19 | 1021.5 |
| 20260510083221 | 54 | 246 | 0.0 | 0.0 | 0.00 | 0.00 | 0.00 | 20 | 1021.5 |
| 20260510082718 | 54 | 246 | 0.0 | 1.0 | 0.00 | 0.00 | 0.00 | 21 | 1021.5 |
| 20260510082215 | 54 | 246 | 0.0 | 1.0 | 0.00 | 0.00 | 0.00 | 21 | 1021.4 |
| 20260510081732 | 54 | 246 | 0.0 | 1.0 | 0.00 | 0.00 | 0.00 | 21 | 1021.5 |
| 20260510081231 | 54 | 246 | 0.0 | 1.0 | 0.00 | 0.00 | 0.00 | 21 | 1021.6 |
| 20260510080728 | 54 | 245 | 0.0 | 1.0 | 0.00 | 0.00 | 0.00 | 21 | 1021.7 |
| 20260510080245 | 54 | 245 | 0.0 | 1.0 | 0.00 | 0.00 | 0.00 | 21 | 1021.7 |
| 20260510075722 | 54 | 242 | 0.0 | 1.0 | 0.00 | 0.00 | 0.00 | 21 | 1021.7 |
| 20260510075240 | 54 | 242 | 0.0 | 0.0 | 0.00 | 0.00 | 0.00 | 21 | 1021.7 |
| 20260510074736 | 54 | 242 | 0.0 | 1.0 | 0.00 | 0.00 | 0.00 | 22 | 1021.7 |
| 20260510074212 | 54 | 242 | 0.0 | 1.0 | 0.00 | 0.00 | 0.00 | 21 | 1021.7 |
| 20260510073715 | 54 | 242 | 0.0 | 1.0 | 0.00 | 0.00 | 0.00 | 21 | 1021.8 |
| 20260510073213 | 54 | 240 | 0.0 | 1.0 | 0.00 | 0.00 | 0.00 | 21 | 1021.9 |
| 20260510072710 | 53 | 240 | 0.0 | 1.0 | 0.00 | 0.00 | 0.00 | 21 | 1021.9 |
| 20260510072207 | 53 | 240 | 0.0 | 1.0 | 0.00 | 0.00 | 0.00 | 22 | 1021.8 |
| 20260510071725 | 53 | 240 | 0.0 | 1.0 | 0.00 | 0.00 | 0.00 | 21 | 1021.9 |
| 20260510071242 | 53 | 240 | 0.0 | 1.0 | 0.00 | 0.00 | 0.00 | 22 | 1021.8 |
| 20260510070718 | 53 | 240 | 0.0 | 1.0 | 0.00 | 0.00 | 0.00 | 22 | 1021.8 |
| 20260510070236 | 53 | 240 | 0.0 | 1.0 | 0.00 | 0.00 | 0.00 | 21 | 1021.9 |
| 20260510065714 | 53 | 240 | 0.0 | 1.0 | 0.00 | 0.00 | 0.00 | 20 | 1021.8 |
| 20260510065211 | 53 | 240 | 0.0 | 1.0 | 0.00 | 0.00 | 0.00 | 21 | 1021.9 |
| 20260510064709 | 53 | 240 | 0.0 | 1.0 | 0.00 | 0.00 | 0.00 | 21 | 1021.9 |
| 20260510064206 | 53 | 240 | 0.0 | 1.0 | 0.00 | 0.00 | 0.00 | 20 | 1021.9 |
| 20260510063704 | 53 | 240 | 0.0 | 1.0 | 0.00 | 0.00 | 0.00 | 20 | 1021.9 |
| 20260510063222 | 53 | 240 | 0.0 | 1.0 | 0.00 | 0.00 | 0.00 | 20 | 1021.9 |
| 20260510062719 | 53 | 240 | 0.0 | 1.0 | 0.00 | 0.00 | 0.00 | 20 | 1021.9 |
| 20260510062237 | 53 | 240 | 0.0 | 1.0 | 0.00 | 0.00 | 0.00 | 21 | 1021.9 |
| 20260510061713 | 53 | 240 | 0.0 | 1.0 | 0.00 | 0.00 | 0.00 | 21 | 1021.9 |
| 20260510061210 | 54 | 240 | 0.0 | 1.0 | 0.00 | 0.00 | 0.00 | 22 | 1021.9 |
| 20260510060709 | 54 | 240 | 0.0 | 1.0 | 0.00 | 0.00 | 0.00 | 22 | 1021.9 |
| 20260510060227 | 54 | 240 | 0.0 | 1.0 | 0.00 | 0.00 | 0.00 | 23 | 1021.9 |
| 20260510055710 | 54 | 240 | 0.0 | 1.0 | 0.00 | 0.00 | 0.00 | 23 | 1021.9 |
| 20260510055206 | 54 | 240 | 0.0 | 1.0 | 0.00 | 0.00 | 0.00 | 23 | 1021.9 |
| 20260510054745 | 54 | 240 | 0.0 | 1.0 | 0.00 | 0.00 | 0.00 | 22 | 1021.9 |
| 20260510054222 | 54 | 240 | 0.0 | 1.0 | 0.00 | 0.00 | 0.00 | 22 | 1021.8 |
| 20260510053740 | 54 | 240 | 0.0 | 1.0 | 0.00 | 0.00 | 0.00 | 22 | 1021.9 |
| 20260510053216 | 54 | 240 | 0.0 | 1.0 | 0.00 | 0.00 | 0.00 | 22 | 1021.8 |
| 20260510052714 | 54 | 240 | 0.0 | 1.0 | 0.00 | 0.00 | 0.00 | 22 | 1021.8 |
| 20260510052212 | 54 | 240 | 0.0 | 1.0 | 0.00 | 0.00 | 0.00 | 21 | 1021.9 |
| 20260510051709 | 55 | 240 | 0.0 | 1.0 | 0.00 | 0.00 | 0.00 | 21 | 1021.8 |
| 20260510051206 | 55 | 240 | 0.0 | 1.0 | 0.00 | 0.00 | 0.00 | 21 | 1021.9 |
| 20260510050724 | 54 | 240 | 0.0 | 1.0 | 0.00 | 0.00 | 0.00 | 20 | 1021.7 |
| 20260510050222 | 55 | 240 | 0.0 | 1.0 | 0.00 | 0.00 | 0.00 | 20 | 1021.8 |
| 20260510045721 | 55 | 240 | 1.0 | 1.0 | 0.00 | 0.00 | 0.00 | 20 | 1021.7 |
| 20260510045219 | 55 | 240 | 0.0 | 1.0 | 0.00 | 0.00 | 0.00 | 19 | 1021.7 |
| 20260510044716 | 55 | 247 | 0.0 | 1.0 | 0.00 | 0.00 | 0.00 | 19 | 1021.6 |
| 20260510044214 | 56 | 247 | 0.0 | 1.0 | 0.00 | 0.00 | 0.00 | 19 | 1021.6 |
| 20260510043712 | 56 | 247 | 0.0 | 1.0 | 0.00 | 0.00 | 0.00 | 18 | 1021.6 |
| 20260510043213 | 56 | 247 | 0.0 | 1.0 | 0.00 | 0.00 | 0.00 | 17 | 1021.5 |
| 20260510042711 | 56 | 247 | 0.0 | 1.0 | 0.00 | 0.00 | 0.00 | 17 | 1021.5 |
| 20260510042209 | 55 | 251 | 0.0 | 1.0 | 0.00 | 0.00 | 0.00 | 17 | 1021.5 |
| 20260510041706 | 55 | 253 | 0.0 | 1.0 | 0.00 | 0.00 | 0.00 | 18 | 1021.4 |
| 20260510041224 | 55 | 253 | 0.0 | 1.0 | 0.00 | 0.00 | 0.00 | 18 | 1021.4 |
| 20260510040722 | 55 | 254 | 0.0 | 0.0 | 0.00 | 0.00 | 0.00 | 18 | 1021.4 |
| 20260510040220 | 55 | 254 | 0.0 | 0.0 | 0.00 | 0.00 | 0.00 | 18 | 1021.4 |
| 20260510035719 | 56 | 254 | 0.0 | 0.0 | 0.00 | 0.00 | 0.00 | 16 | 1021.4 |
| 20260510035236 | 57 | 254 | 0.0 | 0.0 | 0.00 | 0.00 | 0.00 | 16 | 1021.3 |
| 20260510034733 | 57 | 254 | 0.0 | 0.0 | 0.00 | 0.00 | 0.00 | 14 | 1021.3 |
| 20260510034210 | 58 | 254 | 0.0 | 1.0 | 0.00 | 0.00 | 0.00 | 12 | 1021.3 |
| 20260510033708 | 58 | 254 | 0.0 | 1.0 | 0.00 | 0.00 | 0.00 | 12 | 1021.2 |
| 20260510033223 | 58 | 253 | 0.0 | 1.0 | 0.00 | 0.00 | 0.00 | 12 | 1021.2 |
| 20260510032741 | 59 | 254 | 0.0 | 1.0 | 0.00 | 0.00 | 0.00 | 12 | 1021.1 |
| 20260510032217 | 59 | 254 | 0.0 | 1.0 | 0.00 | 0.00 | 0.00 | 11 | 1021.1 |
| 20260510031715 | 59 | 254 | 0.0 | 1.0 | 0.00 | 0.00 | 0.00 | 10 | 1021.0 |
| 20260510031234 | 59 | 253 | 0.0 | 1.0 | 0.00 | 0.00 | 0.00 | 10 | 1020.9 |
| 20260510030711 | 60 | 254 | 0.0 | 1.0 | 0.00 | 0.00 | 0.00 | 10 | 1020.9 |
| 20260510030208 | 60 | 254 | 0.0 | 1.0 | 0.00 | 0.00 | 0.00 | 10 | 1020.9 |
| 20260510025710 | 60 | 254 | 0.0 | 1.0 | 0.00 | 0.00 | 0.00 | 11 | 1020.8 |
| 20260510025208 | 60 | 254 | 0.0 | 1.0 | 0.00 | 0.00 | 0.00 | 11 | 1020.8 |
| 20260510024746 | 61 | 253 | 0.0 | 1.0 | 0.00 | 0.00 | 0.00 | 11 | 1020.8 |
| 20260510024223 | 61 | 255 | 0.0 | 1.0 | 0.00 | 0.00 | 0.00 | 11 | 1020.8 |
| 20260510023721 | 61 | 255 | 0.0 | 1.0 | 0.00 | 0.00 | 0.00 | 12 | 1020.8 |
| 20260510023239 | 61 | 255 | 0.0 | 1.0 | 0.00 | 0.00 | 0.00 | 14 | 1020.8 |
| 20260510022715 | 62 | 255 | 0.0 | 1.0 | 0.00 | 0.00 | 0.00 | 15 | 1020.9 |
| 20260510022212 | 62 | 255 | 0.0 | 1.0 | 0.00 | 0.00 | 0.00 | 17 | 1020.8 |
| 20260510021710 | 63 | 255 | 0.0 | 1.0 | 0.00 | 0.00 | 0.00 | 17 | 1020.8 |
| 20260510021229 | 63 | 255 | 0.0 | 1.0 | 0.00 | 0.00 | 0.00 | 17 | 1020.8 |
| 20260510020726 | 63 | 295 | 0.0 | 1.0 | 0.00 | 0.00 | 0.00 | 18 | 1020.7 |
| 20260510020244 | 64 | 262 | 0.0 | 2.0 | 0.00 | 0.00 | 0.00 | 17 | 1020.7 |
| 20260510015721 | 64 | 257 | 0.0 | 2.0 | 0.00 | 0.00 | 0.00 | 15 | 1020.7 |
| 20260510015217 | 64 | 255 | 0.0 | 2.0 | 0.00 | 0.00 | 0.00 | 16 | 1020.7 |
| 20260510014715 | 65 | 254 | 0.0 | 2.0 | 0.00 | 0.00 | 0.00 | 15 | 1020.7 |
| 20260510014214 | 65 | 250 | 0.0 | 2.0 | 0.00 | 0.00 | 0.00 | 15 | 1020.7 |
| 20260510013712 | 65 | 261 | 0.0 | 1.0 | 0.00 | 0.00 | 0.00 | 16 | 1020.7 |
| 20260510013210 | 66 | 259 | 0.0 | 1.0 | 0.00 | 0.00 | 0.00 | 17 | 1020.6 |
| 20260510012747 | 66 | 259 | 0.0 | 1.0 | 0.00 | 0.00 | 0.00 | 16 | 1020.6 |
| 20260510012244 | 66 | 255 | 0.0 | 1.0 | 0.00 | 0.00 | 0.00 | 16 | 1020.6 |
| 20260510011720 | 67 | 292 | 0.0 | 2.0 | 0.00 | 0.00 | 0.00 | 14 | 1020.6 |
| 20260510011218 | 67 | 260 | 0.0 | 2.0 | 0.00 | 0.00 | 0.00 | 17 | 1020.6 |
| 20260510010719 | 67 | 271 | 0.0 | 3.0 | 0.00 | 0.00 | 0.00 | 16 | 1020.5 |
| 20260510010216 | 67 | 288 | 0.0 | 3.0 | 0.00 | 0.00 | 0.00 | 16 | 1020.6 |
| 20260510005713 | 68 | 295 | 0.0 | 1.0 | 0.00 | 0.00 | 0.00 | 16 | 1020.5 |
| 20260510005210 | 68 | 240 | 0.0 | 2.0 | 0.00 | 0.00 | 0.00 | 18 | 1020.5 |
| 20260510004707 | 68 | 229 | 0.0 | 3.0 | 0.00 | 0.00 | 0.00 | 17 | 1020.5 |
| 20260510004225 | 69 | 252 | 0.0 | 3.0 | 0.00 | 0.00 | 0.00 | 17 | 1020.5 |
| 20260510003744 | 69 | 307 | 1.0 | 3.0 | 0.00 | 0.00 | 0.00 | 17 | 1020.4 |
| 20260510003220 | 70 | 291 | 0.0 | 3.0 | 0.00 | 0.00 | 0.00 | 17 | 1020.5 |
| 20260510002713 | 70 | 261 | 0.0 | 3.0 | 0.00 | 0.00 | 0.00 | 16 | 1020.5 |
| 20260510002210 | 70 | 254 | 0.0 | 3.0 | 0.00 | 0.00 | 0.00 | 17 | 1020.5 |
| 20260510001708 | 70 | 263 | 1.0 | 3.0 | 0.00 | 0.00 | 0.00 | 16 | 1020.4 |
| 20260510001226 | 71 | 219 | 1.0 | 3.0 | 0.00 | 0.00 | 0.00 | 16 | 1020.4 |
| 20260510000724 | 71 | 262 | 0.0 | 3.0 | 0.00 | 0.00 | 0.00 | 15 | 1020.5 |
| 20260510000221 | 71 | 205 | 1.0 | 3.0 | 0.00 | 0.00 | 0.00 | 15 | 1020.5 |
| 20260509235720 | 71 | 262 | 1.0 | 3.0 | 0.00 | 0.00 | 0.00 | 15 | 1020.4 |
| 20260509235236 | 72 | 250 | 0.0 | 4.0 | 0.00 | 0.00 | 0.00 | 15 | 1020.4 |
| 20260509234713 | 72 | 304 | 1.0 | 4.0 | 0.00 | 0.00 | 0.00 | 14 | 1020.4 |
| 20260509234215 | 73 | 264 | 1.0 | 3.0 | 0.00 | 0.00 | 0.00 | 13 | 1020.5 |
| 20260509233712 | 73 | 155 | 0.0 | 4.0 | 0.00 | 0.00 | 0.00 | 14 | 1020.4 |
| 20260509233210 | 73 | 293 | 1.0 | 4.0 | 0.00 | 0.00 | 0.00 | 12 | 1020.4 |
| 20260509232706 | 73 | 236 | 1.0 | 3.0 | 0.00 | 0.00 | 0.00 | 13 | 1020.4 |
| 20260509232225 | 73 | 236 | 0.0 | 4.0 | 0.00 | 0.00 | 0.00 | 13 | 1020.6 |
| 20260509231723 | 73 | 259 | 1.0 | 4.0 | 0.00 | 0.00 | 0.00 | 13 | 1020.6 |
| 20260509231220 | 73 | 263 | 0.0 | 4.0 | 0.00 | 0.00 | 0.00 | 15 | 1020.7 |
| 20260509230718 | 74 | 155 | 0.0 | 4.0 | 0.00 | 0.00 | 0.00 | 15 | 1020.6 |
| 20260509230215 | 73 | 285 | 1.0 | 4.0 | 0.00 | 0.00 | 0.00 | 14 | 1020.6 |
| 20260509225714 | 74 | 248 | 1.0 | 5.0 | 0.00 | 0.00 | 0.00 | 14 | 1020.7 |
| 20260509225212 | 74 | 238 | 1.0 | 5.0 | 0.00 | 0.00 | 0.00 | 16 | 1020.7 |
| 20260509224730 | 74 | 263 | 1.0 | 3.0 | 0.00 | 0.00 | 0.00 | 14 | 1020.7 |
| 20260509224228 | 74 | 264 | 1.0 | 3.0 | 0.00 | 0.00 | 0.00 | 13 | 1020.8 |
| 20260509223726 | 74 | 86 | 1.0 | 2.0 | 0.00 | 0.00 | 0.00 | 12 | 1020.8 |
| 20260509223244 | 74 | 288 | 0.0 | 6.0 | 0.00 | 0.00 | 0.00 | 12 | 1020.9 |
| 20260509222721 | 74 | 309 | 1.0 | 6.0 | 0.00 | 0.00 | 0.00 | 12 | 1021.0 |
| 20260509222239 | 74 | 95 | 1.0 | 5.0 | 0.00 | 0.00 | 0.00 | 12 | 1021.0 |
| 20260509221715 | 74 | 221 | 1.0 | 5.0 | 0.00 | 0.00 | 0.00 | 12 | 1020.9 |
| 20260509221213 | 75 | 331 | 1.0 | 5.0 | 0.00 | 0.00 | 0.00 | 11 | 1021.0 |
| 20260509220715 | 75 | 217 | 1.0 | 5.0 | 0.00 | 0.00 | 0.00 | 10 | 1021.0 |
| 20260509220213 | 75 | 39 | 2.0 | 5.0 | 0.00 | 0.00 | 0.00 | 12 | 1021.0 |
| 20260509215712 | 76 | 49 | 1.0 | 3.0 | 0.00 | 0.00 | 0.00 | 11 | 1021.1 |
| 20260509215209 | 76 | 150 | 1.0 | 2.0 | 0.00 | 0.00 | 0.00 | 11 | 1021.1 |
| 20260509214708 | 77 | 45 | 1.0 | 4.0 | 0.00 | 0.00 | 0.00 | 9 | 1021.2 |
| 20260509214227 | 77 | 229 | 1.0 | 4.0 | 0.00 | 0.00 | 0.00 | 11 | 1021.2 |
| 20260509213744 | 77 | 41 | 1.0 | 4.0 | 0.00 | 0.00 | 0.00 | 11 | 1021.2 |
| 20260509213221 | 77 | 146 | 0.0 | 4.0 | 0.00 | 0.00 | 0.00 | 12 | 1021.2 |
| 20260509212736 | 78 | 262 | 1.0 | 4.0 | 0.00 | 0.00 | 0.00 | 11 | 1021.4 |
| 20260509212212 | 77 | 242 | 1.0 | 3.0 | 0.00 | 0.00 | 0.00 | 11 | 1021.4 |
| 20260509211235 | 76 | 218 | 1.0 | 3.0 | 0.00 | 0.00 | 0.00 | 11 | 1021.4 |
| 20260509210712 | 76 | 69 | 1.0 | 2.0 | 0.00 | 0.00 | 0.00 | 13 | 1021.5 |
| 20260509210210 | 76 | 61 | 0.0 | 3.0 | 0.00 | 0.00 | 0.00 | 14 | 1021.5 |
| 20260509205749 | 74 | 231 | 1.0 | 4.0 | 0.00 | 0.00 | 0.00 | 16 | 1021.5 |
| 20260509205225 | 74 | 92 | 2.0 | 4.0 | 0.00 | 0.00 | 0.00 | 16 | 1021.7 |
| 20260509204723 | 74 | 80 | 1.0 | 5.0 | 0.00 | 0.00 | 0.00 | 17 | 1021.7 |
| 20260509204220 | 74 | 49 | 3.0 | 5.0 | 0.00 | 0.00 | 0.00 | 16 | 1021.7 |
| 20260509203718 | 74 | 218 | 1.0 | 5.0 | 0.00 | 0.00 | 0.00 | 16 | 1021.7 |
| 20260509203235 | 75 | 82 | 2.0 | 5.0 | 0.00 | 0.00 | 0.00 | 16 | 1021.7 |
| 20260509202710 | 75 | 77 | 2.0 | 5.0 | 0.00 | 0.00 | 0.00 | 15 | 1021.7 |
| 20260509202248 | 75 | 297 | 1.0 | 5.0 | 0.00 | 0.00 | 0.00 | 15 | 1021.7 |
| 20260509201725 | 76 | 34 | 1.0 | 4.0 | 0.00 | 0.00 | 0.00 | 16 | 1021.8 |
| 20260509201222 | 76 | 49 | 1.0 | 6.0 | 0.00 | 0.00 | 0.00 | 15 | 1021.7 |
| 20260509200718 | 77 | 23 | 3.0 | 6.0 | 0.00 | 0.00 | 0.00 | 14 | 1021.8 |
| 20260509200219 | 79 | 49 | 0.0 | 3.0 | 0.00 | 0.00 | 0.00 | 9 | 1021.7 |
| 20260509195739 | 78 | 124 | 0.0 | 3.0 | 0.00 | 0.00 | 0.00 | 11 | 1021.8 |
| 20260509195214 | 78 | 294 | 1.0 | 4.0 | 0.00 | 0.00 | 0.00 | 10 | 1021.7 |
| 20260509194712 | 78 | 27 | 1.0 | 4.0 | 0.00 | 0.00 | 0.00 | 10 | 1021.8 |
| 20260509194210 | 77 | 174 | 1.0 | 3.0 | 0.00 | 0.00 | 0.00 | 14 | 1021.9 |
| 20260509193728 | 78 | 65 | 2.0 | 3.0 | 0.00 | 0.00 | 0.00 | 10 | 1021.8 |
| 20260509193226 | 79 | 41 | 1.0 | 3.0 | 0.00 | 0.00 | 0.00 | 9 | 1021.9 |
| 20260509192724 | 80 | 304 | 0.0 | 3.0 | 0.00 | 0.00 | 0.00 | 9 | 1021.8 |
| 20260509192222 | 79 | 68 | 1.0 | 3.0 | 0.00 | 0.00 | 0.00 | 10 | 1021.8 |
| 20260509191720 | 79 | 259 | 0.0 | 4.0 | 0.00 | 0.00 | 0.00 | 10 | 1021.8 |
| 20260509191216 | 79 | 111 | 1.0 | 4.0 | 0.00 | 0.00 | 0.00 | 9 | 1021.9 |
| 20260509190714 | 80 | 37 | 0.0 | 5.0 | 0.00 | 0.00 | 0.00 | 9 | 1021.9 |
| 20260509190232 | 79 | 146 | 1.0 | 5.0 | 0.00 | 0.00 | 0.00 | 10 | 1021.9 |
| 20260509185731 | 80 | 198 | 1.0 | 3.0 | 0.00 | 0.00 | 0.00 | 11 | 1021.9 |
| 20260509185247 | 79 | 10 | 1.0 | 3.0 | 0.00 | 0.00 | 0.00 | 11 | 1021.9 |
| 20260509184724 | 79 | 306 | 1.0 | 5.0 | 0.00 | 0.00 | 0.00 | 9 | 1021.9 |
| 20260509184223 | 79 | 233 | 2.0 | 5.0 | 0.00 | 0.00 | 0.00 | 10 | 1021.9 |
| 20260509183721 | 80 | 46 | 0.0 | 3.0 | 0.00 | 0.00 | 0.00 | 9 | 1021.9 |
| 20260509183218 | 79 | 171 | 0.0 | 3.0 | 0.00 | 0.00 | 0.00 | 8 | 1021.9 |
| 20260509182719 | 79 | 305 | 0.0 | 4.0 | 0.00 | 0.00 | 0.00 | 8 | 1021.9 |
| 20260509182217 | 80 | 261 | 0.0 | 4.0 | 0.00 | 0.00 | 0.00 | 9 | 1021.9 |
| 20260509181714 | 79 | 254 | 0.0 | 2.0 | 0.00 | 0.00 | 0.00 | 9 | 1021.9 |
| 20260509181212 | 78 | 252 | 1.0 | 4.0 | 0.00 | 0.00 | 0.00 | 8 | 1021.9 |
| 20260509180750 | 78 | 267 | 0.0 | 4.0 | 0.00 | 0.00 | 0.00 | 8 | 1021.9 |
| 20260509180227 | 79 | 252 | 1.0 | 3.0 | 0.00 | 0.00 | 0.00 | 7 | 1021.9 |
| 20260509175725 | 79 | 90 | 1.0 | 4.0 | 0.00 | 0.00 | 0.00 | 9 | 1021.9 |
| 20260509175223 | 78 | 179 | 1.0 | 2.0 | 0.00 | 0.00 | 0.00 | 8 | 1021.9 |
| 20260509174720 | 78 | 233 | 0.0 | 3.0 | 0.00 | 0.00 | 0.00 | 6 | 1021.9 |
| 20260509174238 | 78 | 134 | 1.0 | 3.0 | 0.00 | 0.00 | 0.00 | 8 | 1021.8 |
| 20260509173714 | 78 | 20 | 1.0 | 2.0 | 0.00 | 0.00 | 0.00 | 8 | 1021.9 |
| 20260509173212 | 76 | 214 | 0.0 | 3.0 | 0.00 | 0.00 | 0.00 | 6 | 1021.9 |
| 20260509172710 | 77 | 257 | 0.0 | 3.0 | 0.00 | 0.00 | 0.00 | 7 | 1021.9 |
| 20260509172228 | 77 | 265 | 0.0 | 2.0 | 0.00 | 0.00 | 0.00 | 7 | 1021.9 |
| 20260509171726 | 77 | 224 | 0.0 | 2.0 | 0.00 | 0.00 | 0.00 | 8 | 1021.9 |
| 20260509171224 | 77 | 250 | 0.0 | 2.0 | 0.00 | 0.00 | 0.00 | 7 | 1021.9 |
| 20260509170721 | 76 | 250 | 1.0 | 2.0 | 0.00 | 0.00 | 0.00 | 8 | 1021.8 |
| 20260509170222 | 76 | 124 | 0.0 | 2.0 | 0.00 | 0.00 | 0.00 | 7 | 1021.8 |
| 20260509165720 | 76 | 155 | 0.0 | 2.0 | 0.00 | 0.00 | 0.00 | 8 | 1021.9 |
| 20260509165217 | 75 | 190 | 0.0 | 2.0 | 0.00 | 0.00 | 0.00 | 10 | 1021.8 |
| 20260509164714 | 75 | 35 | 1.0 | 2.0 | 0.00 | 0.00 | 0.00 | 9 | 1021.8 |
| 20260509164214 | 75 | 251 | 0.0 | 2.0 | 0.00 | 0.00 | 0.00 | 9 | 1021.8 |
| 20260509163712 | 74 | 147 | 0.0 | 3.0 | 0.00 | 0.00 | 0.00 | 12 | 1021.8 |
| 20260509163210 | 74 | 195 | 1.0 | 3.0 | 0.00 | 0.00 | 0.00 | 9 | 1021.7 |
| 20260509162723 | 74 | 269 | 0.0 | 3.0 | 0.00 | 0.00 | 0.00 | 11 | 1021.7 |
| 20260509162221 | 74 | 302 | 0.0 | 2.0 | 0.00 | 0.00 | 0.00 | 12 | 1021.8 |
| 20260509161719 | 73 | 224 | 0.0 | 2.0 | 0.00 | 0.00 | 0.00 | 13 | 1021.8 |
| 20260509161216 | 73 | 11 | 0.0 | 2.0 | 0.00 | 0.00 | 0.00 | 13 | 1021.8 |
| 20260509160714 | 73 | 340 | 0.0 | 1.0 | 0.00 | 0.00 | 0.00 | 13 | 1021.7 |